Home   Weather   St. Augustine   Past weeks

Flag for USA Past Weather in St. Augustine, Florida, USA — Yesterday and Last 2 Weeks

Now
57 °F

Clear.


Feels Like: 57 °F
Forecast: 56 / 71 °F
Wind: 5 mph from West

Location: St. Augustine Airport

Current Time: Dec 7, 2016 at 7:35:11 am

Latest Report: Dec 7, 2016 at 6:58 am


Visibility: 10 mi

Pressure: 30.03 "Hg

Humidity: 96%

Dew Point: 56 °F

Location of St. AugustineLocation

Past Weather in St. Augustine — Graph

°F

St. Augustine Temperature Yesterday

Maximum temperature yesterday: 81 °F (at 3:58 pm)
Minimum temperature yesterday: 63 °F (at 11:58 pm)
Average temperature yesterday: 73 °F

High & Low Weather Summary for the Past Weeks

 TemperatureHumidityPressure
High84 °F (Dec 5, 1:58 pm)94% (Dec 6, 9:02 am)30.29 "Hg (Dec 6, 9:02 am)
Low47 °F (Nov 22, 5:58 am)37% (Dec 2, 12:58 pm)29.78 "Hg (Dec 6, 1:58 pm)
Average68 °F75%30.09 "Hg
* Reported Nov 22 5:58 am — Dec 7 5:58 am, St. Augustine, Weather by CustomWeather, © 2016

Note: Actual official high and low records may vary slightly from our data, if they occured in-between our weather recording intervals... More about our weather records

Advertising

St. Augustine Weather History for the Previous 24 Hours

Scroll right to see more
 ConditionsComfort  
Time TempWeatherWind HumidityBarometerVisibility
5:58 am
Wed, Dec 7
59 °FClear.5 mph93%30.01 "Hg10 mi
4:58 am59 °FClear.5 mph93%29.99 "Hg10 mi
3:58 am59 °FClear.5 mph93%29.99 "Hg10 mi
2:58 am60 °FClear.7 mph93%29.98 "Hg10 mi
1:58 am61 °FClear.6 mph90%29.96 "Hg10 mi
12:58 am62 °FClear.6 mph90%29.96 "Hg10 mi
11:58 pm
Tue, Dec 6
63 °FClear.6 mph87%29.96 "Hg10 mi
10:58 pm64 °FClear.7 mph84%29.95 "Hg10 mi
9:58 pm65 °FClear.8 mph78%29.93 "Hg10 mi
8:58 pm67 °FClear.7 mph68%29.91 "Hg10 mi
7:58 pm70 °FClear.10 mph57%29.88 "Hg10 mi
6:58 pm72 °FClear.9 mph55%29.86 "Hg10 mi
5:58 pm74 °FClear.8 mph64%29.83 "Hg10 mi
4:58 pm78 °FSunny.8 mph54%29.81 "Hg10 mi
3:58 pm81 °FSunny.13 mph56%29.79 "Hg10 mi
2:58 pm80 °FPartly sunny.9 mph69%29.79 "Hg10 mi
1:58 pm80 °FMostly cloudy.8 mph74%29.78 "Hg10 mi
1:02 pm79 °FOvercast.13 mph79%29.79 "Hg10 mi
12:58 pm78 °FOvercast.10 mph82%29.79 "Hg10 mi
11:58 am75 °FPartly sunny.10 mph88%29.83 "Hg10 mi
10:58 am74 °FThundershowers. Fog.12 mph91%29.84 "Hg4 mi
10:02 am73 °FLight rain. Fog.12 mph89%29.85 "Hg4 mi
9:02 am73 °FLight rain. Mostly cloudy.12 mph94%29.85 "Hg10 mi
7:58 am73 °FFog.12 mph90%29.83 "Hg5 mi
Weather by CustomWeather, © 2016

See weather overviewHow to use our weather pages